Theta_e
316 316 317 316 316 316 317 317 317 317 318 319 319 319 320 321 322 323 324 324 325 325 325 325 325 324 324 325 324 325 325 325 325 325 325 324 325 326 327 327 327 327
316 316 317 316 316 316 317 317 317 318 318 319 319 320 320 322 323 324 325 325 325 325 325 325 324 324 324 323 323 323 324 324 324 323 323 324 323 323 323 324 324 323
316 317 317 316 316 316 316 317 318 318 318 319 319 319 320 322 323 324 324 325 325 325 324 324 323 323 323 322 323 323 324 324 322 321 321 321 321 321 321 323 324 324
317 318 317 316 316 316 317 317 318 318 317 318 317 318 320 321 322 322 322 322 323 323 322 323 322 323 323 323 324 324 324 323 323 323 322 321 322 322 322 322 323 323
318 318 318 316 316 316 317 317 316 316 316 315 316 317 318 318 318 317 317 318 319 320 320 321 321 322 322 322 322 323 324 322 322 322 322 323 325 325 323 322 322 321
318 317 317 316 316 316 316 315 314 314 314 314 314 315 314 314 314 313 313 314 316 318 319 320 321 321 321 321 322 322 321 321 322 323 323 325 326 324 322 322 322 321
317 316 316 315 315 315 314 313 312 312 312 312 312 312 311 312 312 311 311 312 312 314 315 316 318 319 320 321 321 320 320 322 325 325 324 325 325 324 321 319 319 319
315 315 314 314 313 313 312 312 311 311 311 311 311 311 311 311 311 310 311 310 311 312 312 313 314 316 318 318 318 318 320 322 322 320 319 321 321 322 321 318 316 318
313 313 312 312 312 311 311 311 311 311 311 311 311 311 310 311 310 310 310 310 311 311 311 311 312 313 315 315 316 318 319 319 320 320 321 321 321 322 321 318 317 319
311 311 311 311 311 311 311 311 311 311 311 311 311 311 310 311 310 311 311 311 311 310 311 311 311 312 311 313 316 316 315 318 321 323 324 324 324 324 321 319 318 320
311 311 311 311 311 311 311 311 311 311 310 311 311 311 311 310 311 311 311 311 311 311 311 310 310 311 311 313 316 315 316 320 324 324 324 324 324 323 319 316 317 319
311 311 311 311 311 311 311 311 311 311 310 311 311 311 311 310 310 311 310 311 311 310 311 311 310 310 310 311 313 315 319 323 323 323 324 323 322 320 318 317 318 320
311 311 311 311 311 311 311 310 311 311 311 311 311 311 310 310 311 310 310 310 310 311 311 311 311 310 309 310 313 317 320 320 320 319 317 316 317 319 320 321 320 320
311 311 311 311 310 310 310 311 311 311 311 311 311 311 310 310 310 310 310 310 310 311 311 311 311 310 310 310 312 315 316 314 313 311 310 312 316 318 319 319 318 319
311 311 311 310 311 311 311 312 311 311 311 311 311 310 310 310 310 310 310 310 310 311 311 311 311 311 311 310 310 311 311 308 308 308 311 314 315 315 316 316 317 318
311 310 311 311 311 312 312 312 311 311 311 311 310 310 310 310 310 310 310 310 311 311 311 311 311 311 311 311 310 310 309 308 307 308 311 312 312 313 316 317 317 318
311 311 311 312 312 312 312 312 311 311 311 310 310 310 310 310 310 310 310 310 311 311 312 312 312 312 312 311 311 310 309 308 307 308 309 309 310 314 318 319 318 318
311 312 312 312 312 312 312 311 311 311 311 310 310 310 310 310 310 310 310 310 311 311 311 312 311 311 311 312 311 311 310 310 308 308 311 312 312 314 317 319 319 318
312 312 312 312 312 312 312 311 311 311 311 311 311 310 310 310 310 310 310 310 310 310 310 311 311 311 311 311 311 311 311 311 310 309 311 313 312 313 315 316 317 316
312 312 312 312 312 312 311 311 311 311 311 311 311 310 310 310 310 310 310 309 310 310 310 310 310 310 311 311 311 311 311 311 310 309 309 309 310 311 314 314 314 314
312 312 312 312 312 312 311 311 311 311 311 311 310 310 310 310 310 310 310 309 309 310 310 310 310 310 311 311 311 311 311 311 310 310 310 309 310 312 313 313 313 313
311 312 311 311 311 311 311 311 311 311 311 311 310 310 310 310 310 310 310 309 309 309 310 310 310 310 310 310 311 311 311 311 310 310 310 311 312 313 314 314 314 314
311 311 311 311 311 311 311 311 311 311 311 311 310 310 310 310 310 310 309 309 309 309 310 310 310 310 310 310 310 310 310 311 310 310 311 311 312 313 314 314 315 316
312 311 311 311 311 311 311 311 311 311 311 310 310 310 310 310 310 309 309 309 309 309 310 310 310 310 310 310 310 310 310 310 310 311 311 312 312 312 312 313 313 314
312 311 311 311 311 311 311 311 311 311 311 310 310 310 310 310 309 309 309 309 309 309 309 309 310 309 309 309 310 310 310 310 310 310 311 311 311 312 311 311 311 312
312 311 312 312 311 311 311 311 311 310 310 310 310 310 310 310 309 309 309 309 309 309 309 309 309 309 309 309 310 310 310 310 310 310 310 310 310 310 310 310 310 310
Wind_Speed
32 33 33 33 33 33 34 34 34 34 34 33 31 30 28 28 27 26 26 24 24 24 23 23 23 23 23 23 24 24 25 26 26 26 27 29 32 34 36 38 38 36
33 33 33 34 34 34 34 34 34 34 33 32 30 29 28 27 27 26 26 25 25 24 23 23 23 23 23 23 23 23 24 25 26 25 25 26 28 31 33 32 33 34
33 33 34 34 34 34 34 35 35 34 32 31 30 28 28 27 26 26 26 26 25 25 24 23 23 23 23 23 22 23 25 26 27 26 25 24 24 26 28 29 31 32
33 33 33 34 34 34 35 35 34 32 31 30 29 28 27 26 26 26 26 26 25 25 24 23 23 23 23 24 24 25 27 27 26 26 25 26 26 24 25 29 32 31
33 33 34 35 35 35 34 34 32 31 30 29 28 27 26 26 26 26 25 25 25 24 24 23 23 24 24 25 25 26 27 26 25 24 24 27 30 28 26 27 29 30
34 35 35 35 34 33 33 32 30 29 28 27 26 26 25 25 25 25 24 24 24 24 24 24 24 25 25 24 24 26 26 24 25 25 25 26 28 27 26 27 29 30
34 33 33 33 32 32 31 29 28 28 26 25 25 24 24 23 23 23 22 22 22 23 23 24 25 25 25 25 26 26 25 26 28 28 29 30 29 28 28 29 31 30
31 31 31 31 30 30 29 27 26 25 24 23 23 22 21 21 21 21 21 21 22 23 23 24 24 25 25 26 26 25 24 25 25 23 24 26 27 29 30 27 27 28
29 28 28 28 28 27 26 25 24 22 22 22 21 20 20 20 20 20 20 21 22 23 23 24 25 25 26 26 25 24 22 21 20 19 21 23 24 28 29 26 24 25
26 25 25 26 25 25 24 22 22 21 20 20 19 19 20 20 20 20 21 22 23 23 24 24 24 24 24 23 22 21 19 17 18 22 26 27 27 29 30 29 27 25
25 24 24 24 23 22 21 20 20 20 20 20 20 20 20 20 21 21 22 22 22 23 23 23 23 24 24 22 21 19 18 19 22 25 27 28 29 29 28 27 26 25
26 25 23 22 21 21 20 20 20 20 20 20 20 20 20 21 21 21 21 21 21 21 22 23 23 23 23 22 21 19 20 24 27 27 28 29 30 27 23 22 24 25
26 24 22 21 21 21 20 20 20 21 20 20 20 20 20 20 19 20 20 20 21 21 21 22 22 22 22 21 20 22 24 28 30 30 30 29 27 25 23 23 23 23
23 22 22 22 22 21 21 21 21 20 20 19 19 19 18 18 18 19 20 20 20 21 21 21 22 22 22 22 23 25 28 29 29 29 28 26 25 25 25 24 23 22
23 23 24 23 22 22 21 21 20 20 19 19 18 18 17 18 18 19 20 20 20 20 20 21 20 20 21 22 24 26 26 25 25 26 25 25 25 24 23 23 22 22
24 25 24 23 22 21 21 20 20 19 19 19 18 17 17 18 18 19 19 20 19 19 20 20 19 19 20 21 22 23 23 23 24 24 24 25 24 22 21 22 22 23
25 25 23 22 22 21 21 20 20 20 19 19 18 18 18 18 18 19 19 20 19 19 19 19 18 18 19 19 20 21 21 22 22 21 21 22 22 22 21 21 22 23
25 24 23 22 22 22 22 21 20 21 20 19 19 19 18 19 19 19 19 19 19 19 19 19 18 17 17 18 18 19 19 19 19 18 18 19 21 23 23 22 21 22
25 24 24 24 24 23 23 22 22 22 22 21 20 20 20 20 20 19 19 19 19 19 19 18 18 17 17 17 17 17 17 17 17 17 18 20 21 21 21 22 22 21
26 26 25 25 25 25 25 24 24 24 23 22 22 22 22 22 21 21 20 20 20 19 19 18 18 18 17 18 17 17 16 15 15 16 17 19 19 18 18 20 20 19
28 27 27 26 27 27 27 26 26 26 25 24 24 24 23 23 23 23 22 21 21 21 20 19 19 18 18 18 17 17 16 15 14 14 15 16 16 17 18 19 20 19
29 28 28 28 28 28 29 29 28 28 27 26 25 24 24 24 25 25 24 23 23 22 22 21 21 20 19 18 18 17 16 15 14 14 14 14 15 16 17 18 19 18
30 29 28 28 29 30 31 31 30 30 29 28 27 26 26 26 26 26 26 25 24 24 23 22 22 21 20 19 18 18 16 15 14 14 14 14 15 16 16 17 17 18
30 29 29 30 30 31 32 32 32 31 31 30 29 28 27 26 27 27 28 27 26 25 24 23 22 22 21 20 19 18 17 16 15 15 15 15 16 16 16 16 17 18
32 30 30 31 31 31 32 32 32 33 33 32 31 30 28 27 28 29 29 29 28 27 25 24 23 23 22 22 21 19 18 17 16 15 15 16 16 17 17 16 17 17
34 33 33 32 31 31 32 33 33 34 34 34 33 32 30 29 29 30 30 29 29 27 26 25 24 24 23 22 21 19 18 17 16 15 15 16 16 16 16 16 16 16
Wind_Direction
248 250 252 254 255 257 259 261 263 265 268 270 274 276 278 280 280 281 279 279 277 274 272 270 268 266 265 264 263 264 265 267 269 268 264 260 261 263 264 265 265 265
250 252 254 255 256 258 259 260 262 265 269 273 276 277 277 277 277 278 278 277 275 273 271 269 267 266 265 266 267 268 270 271 271 269 266 261 257 257 261 265 267 268
250 253 255 257 258 259 260 261 263 267 271 273 274 273 273 274 275 275 274 274 273 271 269 267 268 269 268 270 272 272 272 272 273 274 272 269 263 257 258 262 266 267
248 253 257 258 259 259 261 263 265 268 270 270 270 270 271 272 272 271 271 270 269 268 267 266 266 267 269 270 270 272 273 273 275 277 278 280 276 267 264 267 266 266
249 253 256 259 260 262 263 264 265 266 266 266 266 268 269 269 269 269 268 267 266 266 266 266 266 266 266 266 266 268 268 270 274 275 276 281 277 270 272 277 274 270
250 253 256 258 260 261 262 262 262 262 261 262 264 266 267 267 267 266 265 265 264 264 265 266 267 267 266 265 266 266 265 268 272 269 268 273 271 266 270 276 275 273
250 252 254 256 257 258 258 257 256 256 258 261 262 263 264 264 264 264 264 265 265 265 265 266 265 265 266 265 264 263 264 266 268 266 264 263 260 263 272 276 273 270
249 250 251 251 252 251 250 250 251 254 257 258 258 258 259 259 259 261 262 263 264 265 265 265 265 265 264 264 263 262 263 264 263 262 261 258 257 264 273 279 274 265
246 246 244 243 242 243 245 247 250 252 252 251 251 251 251 251 253 255 257 258 260 262 263 263 263 263 262 260 260 259 258 257 256 259 265 266 262 262 270 279 276 266
239 236 234 235 239 243 245 246 245 243 242 242 241 242 243 246 248 250 252 254 256 258 260 262 262 262 261 258 256 254 250 249 256 264 267 264 258 261 272 278 275 269
230 228 231 237 240 241 239 236 234 232 232 232 234 237 240 242 245 247 249 252 255 258 260 262 262 261 260 257 253 251 252 259 263 262 259 256 258 266 275 274 267 267
227 228 233 236 234 230 226 224 223 224 226 229 233 236 239 242 245 249 252 254 257 259 260 261 262 262 260 255 251 249 251 255 255 253 253 256 260 265 270 268 264 266
225 228 229 225 220 218 216 217 219 223 227 230 235 238 242 246 249 252 255 257 258 260 261 262 264 265 264 258 252 249 249 250 251 253 255 254 254 258 265 269 267 269
219 219 216 212 212 212 213 217 221 226 230 233 238 242 246 249 252 254 255 257 259 260 262 264 265 267 267 263 255 251 251 252 254 255 254 252 254 258 263 264 264 267
207 207 207 208 210 212 216 222 226 230 233 237 241 245 248 251 252 254 256 257 259 261 262 263 264 266 267 264 260 258 258 257 255 254 255 256 258 259 258 257 258 260
201 204 206 209 214 218 223 227 229 232 236 239 243 246 249 252 253 255 257 258 258 259 259 261 262 263 264 264 263 263 262 261 258 257 257 256 255 256 258 258 255 254
203 207 211 214 219 224 226 229 231 235 239 242 246 249 252 253 254 255 256 257 257 256 256 257 258 259 261 263 263 263 262 260 258 257 257 255 252 252 256 259 257 255
208 212 216 220 223 226 228 231 235 238 243 247 250 253 256 255 254 254 254 254 253 252 253 256 258 259 261 263 264 263 261 258 256 254 254 254 254 254 257 260 260 260
212 216 220 223 226 229 231 233 238 242 246 251 254 256 257 256 255 254 253 251 250 251 253 255 257 258 259 261 262 263 263 260 257 255 254 253 255 257 258 261 264 266
217 220 223 226 229 232 234 236 240 245 248 252 255 257 258 258 258 256 253 251 251 252 254 255 257 257 256 256 258 260 261 259 255 252 251 251 250 251 254 259 263 264
221 224 227 229 232 235 237 240 243 246 249 252 255 258 260 260 258 255 253 252 252 254 256 256 257 256 254 253 254 256 257 256 252 249 247 247 247 249 252 255 257 257
225 227 230 232 236 238 240 243 245 248 251 253 256 259 261 260 259 256 254 253 253 256 257 257 257 255 252 250 250 252 252 251 249 247 245 245 246 248 251 252 253 255
228 230 233 236 239 241 243 246 248 250 251 253 256 259 262 263 261 258 255 254 254 255 256 256 257 256 253 251 249 249 248 246 246 246 246 249 250 252 253 254 254 255
231 232 235 238 241 243 245 247 249 251 252 254 255 259 262 264 262 258 255 254 253 254 254 254 254 254 253 250 248 246 245 243 243 244 246 249 251 253 255 255 255 256
233 234 237 239 243 245 246 247 249 251 253 254 255 258 261 262 261 257 254 253 253 253 253 254 254 253 251 249 245 242 240 240 241 242 243 245 246 248 251 251 252 254
235 235 238 240 244 246 247 247 248 250 252 253 254 256 258 260 261 258 254 252 252 252 253 253 253 250 248 247 244 241 238 236 237 237 237 239 241 242 246 250 252 255